Date String (YYYY-MM-DD hh:mm:ss) UTC,Instrument flags,Ambient pressure (hPa),Sample flow (lpm),Bypass flow (lpm),Sample temperature (°C),Ambient temperature (°C),ASC tube jacket temperature (°C),LED temperature (°C),Box temperature (°C),Sample RH (%),Span deviation,Mass concentration (μg/m³),Mass concentration (μg/m³),Mass concentration (μg/m³)
DateTimeUTC,F1_M11,P_M11,Q1_M11,Q2_M11,T1_M11,T2_M11,T3_M11,T4_M11,T5_M11,U1_M11,ZSPAN_M11,X0_M11,X2_M11,X1_M11
2021-11-07 14:00:00,,0824.8,5.01,0.00,29.0,28.1,00.0,38.1,30.7,07.2,0000.0,0003.28,0001.58,0001.22
2021-11-07 14:01:00,,0824.7,5.00,0.00,29.0,28.1,00.0,38.1,30.7,07.3,0000.0,0003.30,0001.59,0001.22
2021-11-07 14:02:00,,0824.7,5.00,0.00,29.0,28.1,00.0,38.1,30.7,07.3,0000.0,0004.27,0001.60,0001.22
2021-11-07 14:03:00,,0824.7,4.99,0.00,29.0,28.0,00.0,38.1,30.6,07.3,0000.0,0004.80,0001.63,0001.23
2021-11-07 14:04:00,,0824.7,5.01,0.00,29.0,28.0,00.0,38.1,30.6,07.3,0000.0,0004.83,0001.65,0001.23
2021-11-07 14:05:00,,0824.8,5.00,0.00,29.0,28.0,00.0,38.1,30.6,07.2,0000.0,0004.86,0001.65,0001.24
2021-11-07 14:06:00,,0824.8,4.98,0.00,29.0,28.0,00.0,38.1,30.5,07.2,0000.0,0004.27,0001.66,0001.24
2021-11-07 14:07:00,,0824.8,5.00,0.00,29.0,28.0,00.0,38.1,30.5,07.2,0000.0,0004.24,0001.68,0001.24
2021-11-07 14:08:00,,0824.9,5.00,0.00,28.9,28.0,00.0,38.1,30.5,07.2,0000.0,0004.40,0001.67,0001.23
2021-11-07 14:09:00,,0824.9,5.01,0.00,28.9,28.0,00.0,38.0,30.5,07.3,0000.0,0004.51,0001.72,0001.23
2021-11-07 14:10:00,,0824.9,5.00,0.00,28.9,28.0,00.0,38.0,30.6,07.3,0000.0,0004.30,0001.70,0001.22
2021-11-07 14:11:00,,0824.9,4.99,0.00,28.9,28.0,00.0,38.0,30.6,07.2,0000.0,0004.34,0001.69,0001.23
2021-11-07 14:12:00,,0824.9,4.99,0.00,28.9,28.0,00.0,38.0,30.6,07.3,0000.0,0004.62,0001.68,0001.24
2021-11-07 14:13:00,,0824.9,4.99,0.00,29.0,27.9,00.0,38.0,30.6,07.3,0000.0,0004.10,0001.75,0001.25
2021-11-07 14:14:00,,0824.9,5.01,0.00,28.9,28.0,00.0,38.0,30.5,07.2,0000.0,0003.44,0001.76,0001.27
2021-11-07 14:15:00,,0824.9,5.00,0.00,28.9,28.0,00.0,38.0,30.6,07.2,0000.0,0003.52,0001.79,0001.28
2021-11-07 14:16:00,,0824.9,5.02,0.00,28.9,27.9,00.0,38.0,30.5,07.4,0000.0,0003.49,0001.80,0001.28
2021-11-07 14:17:00,,0825.0,5.00,0.00,28.9,28.0,00.0,38.0,30.6,07.4,0000.0,0003.50,0001.81,0001.28
2021-11-07 14:18:00,,0825.0,4.99,0.00,29.0,28.0,00.0,38.0,30.6,07.4,0000.0,0003.94,0001.77,0001.29
2021-11-07 14:19:00,,0825.1,5.01,0.00,29.0,28.0,00.0,38.0,30.6,07.3,0000.0,0004.23,0001.73,0001.29
2021-11-07 14:20:00,,0825.1,5.00,0.00,29.0,28.0,00.0,38.0,30.6,07.3,0000.0,0004.05,0001.71,0001.29
2021-11-07 14:21:00,,0825.1,4.99,0.00,29.0,28.0,00.0,38.0,30.6,07.3,0000.0,0004.26,0001.75,0001.31
2021-11-07 14:22:00,,0825.1,5.00,0.00,28.9,28.0,00.0,38.0,30.6,07.3,0000.0,0004.47,0001.76,0001.31
2021-11-07 14:23:00,,0825.1,5.00,0.00,28.9,28.0,00.0,38.0,30.6,07.2,0000.0,0004.33,0001.78,0001.30
2021-11-07 14:24:00,,0825.1,5.01,0.00,28.9,28.0,00.0,38.0,30.6,07.2,0000.0,0004.15,0001.76,0001.28
2021-11-07 14:25:00,,0825.2,5.01,0.00,28.9,28.0,00.0,38.0,30.7,07.2,0000.0,0004.22,0001.74,0001.27
2021-11-07 14:26:00,,0825.2,5.00,0.00,28.9,28.0,00.0,38.0,30.6,07.3,0000.0,0004.14,0001.71,0001.27
2021-11-07 14:27:00,,0825.2,5.00,0.00,28.9,28.0,00.0,38.0,30.6,07.3,0000.0,0004.20,0001.72,0001.27
2021-11-07 14:28:00,,0825.2,5.02,0.00,29.0,28.0,00.0,38.0,30.6,07.0,0000.0,0004.13,0001.69,0001.27
2021-11-07 14:29:00,,0825.2,4.99,0.00,29.0,28.0,00.0,38.0,30.6,07.1,0000.0,0003.92,0001.71,0001.28
2021-11-07 14:30:00,,0825.2,5.02,0.00,29.0,28.0,00.0,38.0,30.6,07.2,0000.0,0003.62,0001.73,0001.28
2021-11-07 14:31:00,,0825.2,4.98,0.00,29.0,28.0,00.0,38.0,30.6,07.2,0000.0,0003.66,0001.77,0001.30
2021-11-07 14:32:00,,0825.2,5.00,0.00,29.0,28.0,00.0,38.0,30.6,07.2,0000.0,0003.70,0001.78,0001.31
2021-11-07 14:33:00,,0825.2,4.99,0.00,28.9,28.0,00.0,38.0,30.6,07.1,0000.0,0003.62,0001.81,0001.33
2021-11-07 14:34:00,,0825.2,5.00,0.00,28.9,28.0,00.0,38.0,30.6,07.2,0000.0,0003.54,0001.76,0001.34
2021-11-07 14:35:00,,0825.2,5.01,0.00,28.9,28.0,00.0,38.0,30.6,07.2,0000.0,0003.60,0001.77,0001.34
2021-11-07 14:36:00,,0825.2,5.00,0.00,28.9,28.0,00.0,38.0,30.5,07.2,0000.0,0003.55,0001.78,0001.36
2021-11-07 14:37:00,,0825.2,4.99,0.00,28.9,28.0,00.0,38.0,30.6,07.2,0000.0,0003.51,0001.78,0001.35
2021-11-07 14:38:00,,0825.2,5.00,0.00,28.9,28.0,00.0,38.0,30.6,07.3,0000.0,0003.42,0001.77,0001.36
2021-11-07 14:39:00,,0825.3,5.01,0.00,28.9,28.0,00.0,38.0,30.6,07.2,0000.0,0003.38,0001.77,0001.37
2021-11-07 14:40:00,,0825.3,5.01,0.00,28.9,28.0,00.0,38.0,30.6,07.3,0000.0,0003.27,0001.74,0001.37
2021-11-07 14:41:00,,0825.3,5.00,0.00,29.0,28.0,00.0,38.0,30.6,07.3,0000.0,0002.98,0001.74,0001.37
2021-11-07 14:42:00,,0825.3,4.99,0.00,29.0,28.0,00.0,38.0,30.6,07.3,0000.0,0003.78,0001.77,0001.37
2021-11-07 14:43:00,,0825.3,5.02,0.00,29.0,27.9,00.0,38.0,30.6,07.2,0000.0,0004.23,0001.79,0001.37
2021-11-07 14:44:00,,0825.3,5.01,0.00,29.0,27.9,00.0,38.0,30.7,07.1,0000.0,0004.32,0001.78,0001.35
2021-11-07 14:45:00,,0825.3,4.99,0.00,29.0,28.0,00.0,38.0,30.7,07.1,0000.0,0004.18,0001.80,0001.36
2021-11-07 14:46:00,,0825.4,5.01,0.00,29.0,28.0,00.0,38.0,30.7,07.3,0000.0,0004.13,0001.80,0001.36
2021-11-07 14:47:00,,0825.3,5.00,0.00,29.0,28.0,00.0,38.0,30.7,07.3,0000.0,0004.16,0001.81,0001.34
2021-11-07 14:48:00,,0825.4,4.99,0.00,29.0,28.0,00.0,38.0,30.7,07.2,0000.0,0004.17,0001.82,0001.35
2021-11-07 14:49:00,,0825.4,4.99,0.00,29.0,28.0,00.0,38.0,30.7,07.2,0000.0,0004.41,0001.84,0001.35
2021-11-07 14:50:00,,0825.5,5.00,0.00,29.0,28.0,00.0,38.1,30.7,07.3,0000.0,0005.45,0001.86,0001.34
2021-11-07 14:51:00,,0825.5,4.99,0.00,29.0,28.1,00.0,38.1,30.7,07.3,0000.0,0005.45,0001.85,0001.32
2021-11-07 14:52:00,,0825.6,5.01,0.00,29.1,28.1,00.0,38.1,30.8,07.3,0000.0,0005.44,0001.87,0001.32
2021-11-07 14:53:00,,0825.5,5.00,0.00,29.1,28.1,00.0,38.1,30.8,07.3,0000.0,0004.53,0001.82,0001.32
2021-11-07 14:54:00,,0825.5,5.00,0.00,29.1,28.1,00.0,38.1,30.8,07.3,0000.0,0004.81,0001.81,0001.32
2021-11-07 14:55:00,,0825.5,5.01,0.00,29.1,28.1,00.0,38.1,30.8,07.3,0000.0,0005.01,0001.79,0001.32
2021-11-07 14:56:00,,0825.5,4.99,0.00,29.1,28.1,00.0,38.1,30.8,07.6,0000.0,0005.14,0001.76,0001.32
2021-11-07 14:57:00,,0825.5,5.00,0.00,29.1,28.2,00.0,38.1,30.8,07.6,0000.0,0005.66,0001.72,0001.31
2021-11-07 14:58:00,,0825.5,4.99,0.00,29.1,28.2,00.0,38.1,30.8,07.6,0000.0,0005.75,0001.71,0001.32
2021-11-07 14:59:00,,0825.6,5.01,0.00,29.1,28.2,00.0,38.1,30.8,07.8,0000.0,0005.73,0001.70,0001.30
